Time,TemperatureF,DewpointF,PressureIn,WindDirection,WindDirectionDegrees,WindSpeedMPH,WindSpeedGustMPH,Humidity,HourlyPrecipIn,Conditions,Clouds,dailyrainin,SoftwareType,DateUTC
2013-07-26 00:00:00,83.4,72.6,22.97,SSE,166,0.0,5.0,70,0.00,,SKC,0.00,VWS V14.01,2013-07-26 05:00:00,
2013-07-26 00:05:00,83.3,72.5,22.97,East,98,0.0,5.0,70,0.00,,SKC,0.00,VWS V14.01,2013-07-26 05:05:00,
2013-07-26 00:11:00,83.3,72.5,22.97,South,185,2.0,5.0,70,0.00,,SKC,0.00,VWS V14.01,2013-07-26 05:11:00,
2013-07-26 00:17:00,83.3,72.5,22.97,South,175,0.0,5.0,70,0.00,,SKC,0.00,VWS V14.01,2013-07-26 05:17:00,
2013-07-26 00:23:00,83.2,72.4,22.97,East,81,5.0,5.0,70,0.00,,SKC,0.00,VWS V14.01,2013-07-26 05:23:00,
2013-07-26 00:29:00,83.2,72.4,22.97,South,178,1.0,5.0,70,0.00,,SKC,0.00,VWS V14.01,2013-07-26 05:29:00,
2013-07-26 00:30:00,83.1,72.3,22.97,ESE,108,2.0,5.0,70,0.00,,SKC,0.00,VWS V14.01,2013-07-26 05:30:00,
2013-07-26 00:35:00,83.1,72.3,22.97,SE,131,1.0,6.0,70,0.00,,SKC,0.00,VWS V14.01,2013-07-26 05:35:00,
2013-07-26 00:41:00,82.9,72.5,22.97,East,92,0.0,6.0,71,0.00,,SKC,0.00,VWS V14.01,2013-07-26 05:41:00,
2013-07-26 00:47:00,82.8,72.4,22.97,SSE,165,0.0,6.0,71,0.00,,SKC,0.00,VWS V14.01,2013-07-26 05:47:00,
2013-07-26 00:53:00,82.6,72.2,22.97,East,88,2.0,6.0,71,0.00,,SKC,0.00,VWS V14.01,2013-07-26 05:53:00,
2013-07-26 00:59:00,82.5,72.6,22.97,SSE,153,1.0,6.0,72,0.00,,SKC,0.00,VWS V14.01,2013-07-26 05:59:00,
2013-07-26 01:00:00,82.5,72.6,22.97,East,92,2.0,6.0,72,0.00,,SKC,0.00,VWS V14.01,2013-07-26 06:00:00,
2013-07-26 01:05:00,82.4,72.5,22.97,SSE,150,1.0,3.0,72,0.00,,SKC,0.00,VWS V14.01,2013-07-26 06:05:00,
2013-07-26 01:11:00,82.3,72.4,22.97,South,178,0.0,4.0,72,0.00,,SKC,0.00,VWS V14.01,2013-07-26 06:11:00,
2013-07-26 01:17:00,82.2,72.3,22.97,SE,135,1.0,4.0,72,0.00,,SKC,0.00,VWS V14.01,2013-07-26 06:17:00,
2013-07-26 01:23:00,82.0,72.5,22.97,SE,128,1.0,4.0,73,0.00,,SKC,0.00,VWS V14.01,2013-07-26 06:23:00,
2013-07-26 01:29:00,81.9,72.4,22.97,SSE,155,0.0,4.0,73,0.00,,SKC,0.00,VWS V14.01,2013-07-26 06:29:00,
2013-07-26 01:30:00,81.8,72.3,22.97,ESE,107,1.0,4.0,73,0.00,,SKC,0.00,VWS V14.01,2013-07-26 06:30:00,
2013-07-26 01:35:00,81.8,72.3,22.97,ESE,107,1.0,3.0,73,0.00,,SKC,0.00,VWS V14.01,2013-07-26 06:35:00,
2013-07-26 01:42:00,81.6,72.5,22.97,ESE,103,1.0,3.0,74,0.00,,SKC,0.00,VWS V14.01,2013-07-26 06:42:00,
2013-07-26 01:48:00,81.4,72.3,22.97,SE,142,0.0,3.0,74,0.00,,SKC,0.00,VWS V14.01,2013-07-26 06:48:00,
2013-07-26 01:54:00,81.2,72.5,22.97,East,88,1.0,3.0,75,0.00,,SKC,0.00,VWS V14.01,2013-07-26 06:54:00,
2013-07-26 02:00:00,81.1,72.4,22.97,East,88,1.0,3.0,75,0.00,,SKC,0.00,VWS V14.01,2013-07-26 07:00:00,
2013-07-26 02:06:00,81.0,72.7,22.97,SE,124,1.0,3.0,76,0.00,,SKC,0.00,VWS V14.01,2013-07-26 07:06:00,
2013-07-26 02:12:00,81.0,72.3,22.97,ESE,121,0.0,4.0,75,0.00,,SKC,0.00,VWS V14.01,2013-07-26 07:12:00,
2013-07-26 02:18:00,81.1,72.4,22.97,ESE,119,0.0,4.0,75,0.00,,SKC,0.00,VWS V14.01,2013-07-26 07:18:00,
2013-07-26 02:24:00,81.1,72.4,22.97,SE,127,0.0,5.0,75,0.00,,SKC,0.00,VWS V14.01,2013-07-26 07:24:00,
2013-07-26 02:30:00,81.2,72.1,22.97,SSE,153,1.0,5.0,74,0.00,,SKC,0.00,VWS V14.01,2013-07-26 07:30:00,
2013-07-26 02:36:00,81.2,72.1,22.97,East,80,2.0,5.0,74,0.00,,SKC,0.00,VWS V14.01,2013-07-26 07:36:00,
2013-07-26 02:42:00,81.2,72.1,22.97,SSE,156,3.0,5.0,74,0.00,,SKC,0.00,VWS V14.01,2013-07-26 07:42:00,
2013-07-26 02:48:00,81.2,72.1,22.97,ESE,105,3.0,5.0,74,0.00,,SKC,0.00,VWS V14.01,2013-07-26 07:48:00,
2013-07-26 02:54:00,81.2,72.1,22.97,SE,137,1.0,5.0,74,0.00,,SKC,0.00,VWS V14.01,2013-07-26 07:54:00,
2013-07-26 03:00:00,81.1,72.0,22.97,SE,132,3.0,5.0,74,0.00,,SKC,0.00,VWS V14.01,2013-07-26 08:00:00,
2013-07-26 03:06:00,81.1,72.4,22.97,SSE,154,2.0,6.0,75,0.00,,SKC,0.00,VWS V14.01,2013-07-26 08:06:00,
2013-07-26 03:12:00,81.0,72.3,22.97,East,92,3.0,8.0,75,0.00,,SKC,0.00,VWS V14.01,2013-07-26 08:12:00,
2013-07-26 03:18:00,80.9,72.2,22.97,SSE,148,4.0,8.0,75,0.00,,SKC,0.00,VWS V14.01,2013-07-26 08:18:00,
2013-07-26 03:24:00,80.9,72.2,22.97,SE,132,2.0,8.0,75,0.00,,SKC,0.00,VWS V14.01,2013-07-26 08:24:00,
2013-07-26 03:30:00,80.9,72.2,22.97,East,93,3.0,8.0,75,0.00,,SKC,0.00,VWS V14.01,2013-07-26 08:30:00,
2013-07-26 03:36:00,80.9,72.2,22.97,SE,142,2.0,6.0,75,0.00,,SKC,0.00,VWS V14.01,2013-07-26 08:36:00,
2013-07-26 03:42:00,80.9,72.2,22.97,ESE,113,4.0,6.0,75,0.00,,SKC,0.00,VWS V14.01,2013-07-26 08:42:00,
2013-07-26 03:48:00,80.7,72.4,22.97,SE,142,5.0,6.0,76,0.00,,SKC,0.00,VWS V14.01,2013-07-26 08:48:00,
2013-07-26 03:54:00,80.5,72.2,22.97,South,170,5.0,6.0,76,0.00,,SKC,0.00,VWS V14.01,2013-07-26 08:54:00,
2013-07-26 04:00:00,80.5,72.2,22.97,ESE,103,5.0,7.0,76,0.00,,SKC,0.00,VWS V14.01,2013-07-26 09:00:00,
2013-07-26 04:06:00,80.5,72.2,22.97,SSE,163,4.0,8.0,76,0.00,,SKC,0.00,VWS V14.01,2013-07-26 09:06:00,
2013-07-26 04:12:00,80.5,72.2,22.97,SSE,155,3.0,8.0,76,0.00,,SKC,0.00,VWS V14.01,2013-07-26 09:12:00,
2013-07-26 04:18:00,80.9,72.6,22.97,SSE,147,4.0,9.0,76,0.00,,SKC,0.00,VWS V14.01,2013-07-26 09:18:00,
2013-07-26 04:24:00,81.2,72.5,22.97,SE,140,6.0,11.0,75,0.00,,SKC,0.00,VWS V14.01,2013-07-26 09:24:00,
2013-07-26 04:30:00,81.3,72.6,22.97,South,184,3.0,11.0,75,0.00,,SKC,0.00,VWS V14.01,2013-07-26 09:30:00,
2013-07-26 04:36:00,81.2,72.5,22.97,South,181,1.0,7.0,75,0.00,,SKC,0.00,VWS V14.01,2013-07-26 09:36:00,
2013-07-26 04:42:00,81.2,72.5,22.97,South,176,6.0,8.0,75,0.00,,SKC,0.00,VWS V14.01,2013-07-26 09:42:00,
2013-07-26 04:48:00,81.1,72.8,22.97,SSE,166,0.0,8.0,76,0.00,,SKC,0.00,VWS V14.01,2013-07-26 09:48:00,
2013-07-26 04:54:00,81.1,72.8,22.97,SSE,161,1.0,8.0,76,0.00,,SKC,0.00,VWS V14.01,2013-07-26 09:54:00,
2013-07-26 05:00:00,81.1,72.8,22.97,SSW,196,4.0,8.0,76,0.00,,SKC,0.00,VWS V14.01,2013-07-26 10:00:00,
2013-07-26 05:06:00,81.0,72.7,22.97,SSW,200,6.0,7.0,76,0.00,,SKC,0.00,VWS V14.01,2013-07-26 10:06:00,
2013-07-26 05:12:00,81.0,72.7,22.97,SSE,160,4.0,7.0,76,0.00,,SKC,0.00,VWS V14.01,2013-07-26 10:12:00,
2013-07-26 05:18:00,80.9,72.6,22.97,SSW,197,7.0,8.0,76,0.00,,SKC,0.00,VWS V14.01,2013-07-26 10:18:00,
2013-07-26 05:24:00,80.9,72.6,22.97,South,175,4.0,8.0,76,0.00,,SKC,0.00,VWS V14.01,2013-07-26 10:24:00,
2013-07-26 05:30:00,80.9,72.6,22.97,ESE,106,2.0,8.0,76,0.00,,SKC,0.00,VWS V14.01,2013-07-26 10:30:00,
2013-07-26 05:36:00,80.8,72.5,22.97,South,185,3.0,7.0,76,0.00,,SKC,0.00,VWS V14.01,2013-07-26 10:36:00,
2013-07-26 05:42:00,80.8,72.5,22.97,SSW,208,4.0,7.0,76,0.00,,SKC,0.00,VWS V14.01,2013-07-26 10:42:00,
2013-07-26 05:48:00,80.7,72.4,22.97,South,169,2.0,7.0,76,0.00,,SKC,0.00,VWS V14.01,2013-07-26 10:48:00,
2013-07-26 05:54:00,80.7,72.8,22.97,SSW,192,2.0,7.0,77,0.00,,SKC,0.00,VWS V14.01,2013-07-26 10:54:00,
2013-07-26 06:00:00,80.7,72.8,22.97,SSE,155,3.0,7.0,77,0.00,,SKC,0.00,VWS V14.01,2013-07-26 11:00:00,
2013-07-26 06:07:00,80.6,72.3,22.97,SW,215,7.0,7.0,76,0.00,,SKC,0.00,VWS V14.01,2013-07-26 11:07:00,
2013-07-26 06:13:00,80.7,72.4,22.97,South,178,4.0,7.0,76,0.00,,SKC,0.00,VWS V14.01,2013-07-26 11:13:00,
2013-07-26 06:19:00,80.8,72.5,22.97,South,177,2.0,7.0,76,0.00,,SKC,0.00,VWS V14.01,2013-07-26 11:19:00,
2013-07-26 06:25:00,80.9,72.6,22.97,SW,214,5.0,10.0,76,0.00,,SKC,0.00,VWS V14.01,2013-07-26 11:25:00,
2013-07-26 06:30:00,80.8,72.5,22.97,SSW,211,4.0,10.0,76,0.00,,SKC,0.00,VWS V14.01,2013-07-26 11:30:00,
2013-07-26 06:31:00,80.8,72.5,22.97,South,174,5.0,10.0,76,0.00,,SKC,0.00,VWS V14.01,2013-07-26 11:31:00,
2013-07-26 06:37:00,80.8,72.5,22.97,South,179,3.0,7.0,76,0.00,,SKC,0.00,VWS V14.01,2013-07-26 11:37:00,
2013-07-26 06:43:00,80.8,72.5,22.97,SSE,159,2.0,7.0,76,0.00,,SKC,0.00,VWS V14.01,2013-07-26 11:43:00,
2013-07-26 06:49:00,80.8,72.5,22.97,SSE,154,2.0,9.0,76,0.00,,SKC,0.00,VWS V14.01,2013-07-26 11:49:00,
2013-07-26 06:55:00,80.7,72.8,22.97,SSW,198,2.0,9.0,77,0.00,,SKC,0.00,VWS V14.01,2013-07-26 11:55:00,
2013-07-26 07:00:00,80.4,72.9,22.97,SSW,197,0.0,9.0,78,0.00,,SKC,0.00,VWS V14.01,2013-07-26 12:00:00,
2013-07-26 07:01:00,80.4,72.9,22.97,SSW,197,0.0,9.0,78,0.00,,SKC,0.00,VWS V14.01,2013-07-26 12:01:00,
2013-07-26 07:07:00,80.2,73.1,22.97,South,180,2.0,6.0,79,0.00,,SKC,0.00,VWS V14.01,2013-07-26 12:07:00,
2013-07-26 07:13:00,79.9,72.8,22.97,SSW,198,2.0,6.0,79,0.00,,SKC,0.00,VWS V14.01,2013-07-26 12:13:00,
2013-07-26 07:19:00,79.7,73.0,22.97,South,180,1.0,6.0,80,0.00,,SKC,0.00,VWS V14.01,2013-07-26 12:19:00,
2013-07-26 07:25:00,79.6,72.9,22.97,SSE,167,1.0,6.0,80,0.00,,SKC,0.00,VWS V14.01,2013-07-26 12:25:00,
2013-07-26 07:30:00,79.6,72.9,22.97,SSE,159,1.0,6.0,80,0.00,,SKC,0.00,VWS V14.01,2013-07-26 12:30:00,
2013-07-26 07:31:00,79.6,72.9,22.97,SSE,159,2.0,6.0,80,0.00,,SKC,0.00,VWS V14.01,2013-07-26 12:31:00,
2013-07-26 07:37:00,79.5,72.8,22.97,SSW,207,2.0,5.0,80,0.00,,SKC,0.00,VWS V14.01,2013-07-26 12:37:00,
2013-07-26 07:43:00,79.4,73.1,22.97,SSW,213,0.0,5.0,81,0.00,,SKC,0.00,VWS V14.01,2013-07-26 12:43:00,
2013-07-26 07:49:00,79.3,73.0,22.97,SSW,203,3.0,5.0,81,0.00,,SKC,0.00,VWS V14.01,2013-07-26 12:49:00,
2013-07-26 07:55:00,79.2,72.9,22.97,South,181,5.0,5.0,81,0.00,,SKC,0.00,VWS V14.01,2013-07-26 12:55:00,
2013-07-26 08:00:00,79.2,72.9,22.97,SSW,210,5.0,5.0,81,0.00,,SKC,0.00,VWS V14.01,2013-07-26 13:00:00,
2013-07-26 08:01:00,79.2,72.9,22.97,SSW,210,3.0,5.0,81,0.00,,SKC,0.00,VWS V14.01,2013-07-26 13:01:00,
2013-07-26 08:07:00,79.3,72.6,22.97,South,180,2.0,5.0,80,0.00,,SKC,0.00,VWS V14.01,2013-07-26 13:07:00,
2013-07-26 08:13:00,79.3,72.6,22.97,SSE,163,2.0,6.0,80,0.00,,SKC,0.00,VWS V14.01,2013-07-26 13:13:00,
2013-07-26 08:19:00,79.3,72.6,22.97,SE,130,3.0,6.0,80,0.00,,SKC,0.00,VWS V14.01,2013-07-26 13:19:00,
2013-07-26 08:25:00,79.3,72.6,22.97,SSW,204,2.0,8.0,80,0.00,,SKC,0.00,VWS V14.01,2013-07-26 13:25:00,
2013-07-26 08:30:00,79.3,72.6,22.97,SSW,211,1.0,8.0,80,0.00,,SKC,0.00,VWS V14.01,2013-07-26 13:30:00,
2013-07-26 08:31:00,79.3,72.6,22.97,SSW,211,1.0,8.0,80,0.00,,SKC,0.00,VWS V14.01,2013-07-26 13:31:00,
2013-07-26 08:37:00,79.2,72.9,22.97,SSW,192,1.0,4.0,81,0.01,,SKC,0.01,VWS V14.01,2013-07-26 13:37:00,
2013-07-26 08:43:00,79.0,73.0,22.97,South,182,2.0,6.0,82,0.01,,SKC,0.01,VWS V14.01,2013-07-26 13:43:00,
2013-07-26 08:50:00,78.7,73.1,22.97,South,182,1.0,6.0,83,0.01,,SKC,0.01,VWS V14.01,2013-07-26 13:50:00,
2013-07-26 08:56:00,78.5,73.3,22.97,South,182,0.0,6.0,84,0.02,,SKC,0.02,VWS V14.01,2013-07-26 13:56:00,
2013-07-26 09:00:00,78.2,73.0,22.97,South,182,0.0,6.0,84,0.02,,SKC,0.02,VWS V14.01,2013-07-26 14:00:00,
2013-07-26 09:01:00,78.2,73.0,22.97,South,182,0.0,6.0,84,0.02,,SKC,0.02,VWS V14.01,2013-07-26 14:01:00,
2013-07-26 09:08:00,78.0,73.1,22.97,South,182,0.0,1.0,85,0.03,,SKC,0.03,VWS V14.01,2013-07-26 14:08:00,
2013-07-26 09:14:00,78.0,73.8,22.97,South,182,0.0,1.0,87,0.03,,SKC,0.03,VWS V14.01,2013-07-26 14:14:00,
2013-07-26 09:20:00,77.7,73.5,22.97,South,182,1.0,1.0,87,0.04,,SKC,0.04,VWS V14.01,2013-07-26 14:20:00,
2013-07-26 09:26:00,77.6,73.8,22.97,South,182,0.0,1.0,88,0.04,,SKC,0.04,VWS V14.01,2013-07-26 14:26:00,
2013-07-26 09:30:00,77.6,74.1,22.97,South,183,1.0,2.0,89,0.04,,SKC,0.04,VWS V14.01,2013-07-26 14:30:00,
2013-07-26 09:32:00,77.6,74.1,22.97,South,183,1.0,2.0,89,0.04,,SKC,0.04,VWS V14.01,2013-07-26 14:32:00,
2013-07-26 09:38:00,77.5,74.0,22.97,WSW,254,0.0,2.0,89,0.05,,SKC,0.05,VWS V14.01,2013-07-26 14:38:00,
2013-07-26 09:44:00,77.4,73.9,22.97,WSW,254,1.0,2.0,89,0.05,,SKC,0.05,VWS V14.01,2013-07-26 14:44:00,
2013-07-26 09:50:00,77.5,74.0,22.97,WSW,254,0.0,2.0,89,0.06,,SKC,0.06,VWS V14.01,2013-07-26 14:50:00,
2013-07-26 09:56:00,77.5,74.3,22.97,WSW,254,0.0,2.0,90,0.06,,SKC,0.06,VWS V14.01,2013-07-26 14:56:00,
2013-07-26 10:00:00,78.2,73.0,22.97,South,182,0.0,6.0,84,0.02,,SKC,0.02,VWS V14.01,2013-07-26 15:00:00,
2013-07-26 10:01:00,77.6,74.8,22.97,WSW,254,0.0,2.0,91,0.07,,SKC,0.07,VWS V14.01,2013-07-26 15:01:00,
2013-07-26 10:08:00,77.4,74.2,22.97,WSW,254,0.0,1.0,90,0.05,,SKC,0.07,VWS V14.01,2013-07-26 15:08:00,
2013-07-26 10:14:00,77.4,74.6,22.97,WSW,254,0.0,2.0,91,0.06,,SKC,0.08,VWS V14.01,2013-07-26 15:14:00,
2013-07-26 10:20:00,77.3,74.5,22.97,WSW,254,0.0,2.0,91,0.07,,SKC,0.09,VWS V14.01,2013-07-26 15:20:00,
2013-07-26 10:26:00,77.3,74.5,22.97,WSW,254,0.0,2.0,91,0.07,,SKC,0.09,VWS V14.01,2013-07-26 15:26:00,
2013-07-26 10:30:00,77.2,74.4,22.97,WSW,254,1.0,2.0,91,0.08,,SKC,0.10,VWS V14.01,2013-07-26 15:30:00,
2013-07-26 10:32:00,77.2,74.4,22.97,WSW,254,1.0,2.0,91,0.08,,SKC,0.10,VWS V14.01,2013-07-26 15:32:00,
2013-07-26 10:38:00,77.3,74.8,22.97,ESE,120,0.0,2.0,92,0.06,,SKC,0.10,VWS V14.01,2013-07-26 15:38:00,
2013-07-26 11:00:00,77.2,74.7,22.97,ESE,112,2.0,6.0,92,0.07,,SKC,0.11,VWS V14.01,2013-07-26 16:00:00,
2013-07-26 11:30:00,78.4,75.6,22.97,South,180,3.0,7.0,91,0.04,,SKC,0.11,VWS V14.01,2013-07-26 16:30:00,
2013-07-26 12:00:00,80.3,76.1,32.32,South,180,3.0,9.0,87,0.01,,SKC,0.11,VWS V14.01,2013-07-26 17:00:00,
2013-07-26 12:30:00,82.5,74.9,32.32,SSW,202,5.0,11.0,78,0.00,,SKC,0.11,VWS V14.01,2013-07-26 17:30:00,
2013-07-26 13:00:00,85.1,74.6,32.32,SSW,202,6.0,14.0,71,0.00,,SKC,0.11,VWS V14.01,2013-07-26 18:00:00,
2013-07-26 13:30:00,86.9,74.6,32.32,SSW,202,6.0,15.0,67,0.00,,SKC,0.11,VWS V14.01,2013-07-26 18:30:00,
2013-07-26 14:00:00,88.7,74.5,32.32,SSW,202,7.0,13.0,63,0.00,,SKC,0.11,VWS V14.01,2013-07-26 19:00:00,
2013-07-26 14:30:00,90.3,75.0,32.32,SSW,202,8.0,19.0,61,0.00,,SKC,0.11,VWS V14.01,2013-07-26 19:30:00,
2013-07-26 15:00:00,91.5,74.7,32.32,SSW,202,7.0,17.0,58,0.00,,SKC,0.11,VWS V14.01,2013-07-26 20:00:00,
2013-07-26 15:30:00,92.3,74.3,32.32,SSW,202,6.0,13.0,56,0.00,,SKC,0.11,VWS V14.01,2013-07-26 20:30:00,
2013-07-26 16:00:00,92.2,73.2,32.32,SSW,202,6.0,14.0,54,0.00,,SKC,0.11,VWS V14.01,2013-07-26 21:00:00,
2013-07-26 16:30:00,94.1,74.9,32.32,SW,225,4.0,11.0,54,0.00,,SKC,0.11,VWS V14.01,2013-07-26 21:30:00,
2013-07-26 17:00:00,92.5,73.4,32.32,SW,225,5.0,12.0,54,0.00,,SKC,0.11,VWS V14.01,2013-07-26 22:00:00,
2013-07-26 17:30:00,93.6,74.5,32.32,SW,225,3.0,9.0,54,0.00,,SKC,0.11,VWS V14.01,2013-07-26 22:30:00,
2013-07-26 18:00:00,93.2,74.6,32.32,SW,225,2.0,6.0,55,0.00,,SKC,0.11,VWS V14.01,2013-07-26 23:00:00,
2013-07-26 18:30:00,94.1,73.2,32.32,WSW,248,3.0,9.0,51,0.00,,SKC,0.11,VWS V14.01,2013-07-26 23:30:00,
2013-07-26 19:00:00,89.9,76.1,32.32,West,270,3.0,11.0,64,0.00,,SKC,0.11,VWS V14.01,2013-07-27 00:00:00,
2013-07-26 19:30:00,94.1,73.2,32.32,WSW,248,3.0,9.0,51,0.00,,SKC,0.11,VWS V14.01,2013-07-27 00:30:00,
2013-07-26 20:00:00,86.5,75.1,18.17,NW,315,1.0,5.0,69,0.00,,SKC,0.11,VWS V14.01,2013-07-27 01:00:00,
2013-07-26 20:30:00,85.2,74.7,18.17,NW,315,0.0,7.0,71,0.00,,SKC,0.11,VWS V14.01,2013-07-27 01:30:00,
2013-07-26 21:00:00,83.4,74.2,18.17,NE,45,0.0,4.0,74,0.00,,SKC,0.11,VWS V14.01,2013-07-27 02:00:00,
2013-07-26 21:30:00,85.2,74.7,18.17,NW,315,0.0,7.0,71,0.00,,SKC,0.11,VWS V14.01,2013-07-27 02:30:00,
2013-07-26 22:00:00,80.2,73.8,18.17,NNE,22,2.0,8.0,81,0.00,,SKC,0.11,VWS V14.01,2013-07-27 03:00:00,
2013-07-26 22:30:00,81.7,74.2,18.17,NW,315,1.0,6.0,78,0.00,,SKC,0.11,VWS V14.01,2013-07-27 03:30:00,
2013-07-26 23:00:00,78.1,72.9,18.17,ENE,68,1.0,6.0,84,0.00,,SKC,0.11,VWS V14.01,2013-07-27 04:00:00,
2013-07-26 23:30:00,77.8,72.9,18.17,ENE,68,1.0,8.0,85,0.00,,SKC,0.11,VWS V14.01,2013-07-27 04:30:00,